Location: Peace River
(56.2330°N, 117.2830°W)
Time: 15:27:01
(UTC-07:00)

N. Korean satellite - Visible Passes

Search period start: 22 February 2018 00:00
Search period end: 04 March 2018 00:00
Orbit: 459 x 514 km, 97.2° (Epoch: 21 February)

Date Brightness Start Highest point End Pass type
(mag) Time Alt. Az. Time Alt. Az. Time Alt. Az.
22 Feb 9.9 19:37:34 10° SW 19:39:57 17° W 19:42:23 10° NW visible
23 Feb 9.3 06:55:41 10° NE 06:58:48 26° E 07:01:58 10° SSE visible
23 Feb 8.9 19:12:56 10° SSW 19:16:00 28° W 19:19:08 10° NNW visible
24 Feb 10.1 06:32:27 10° NE 06:34:51 16° E 06:37:15 10° SE visible
24 Feb 7.7 18:48:44 10° S 18:52:07 49° W 18:55:36 10° NNW visible
25 Feb 10.4 20:01:30 10° W 20:02:28 11° W 20:03:24 10° WNW visible
26 Feb 9.8 19:35:56 10° SW 19:38:25 18° W 19:40:56 10° NW visible
27 Feb 9.4 06:54:09 10° NE 06:57:17 26° E 07:00:28 10° SSE visible
27 Feb 8.9 19:11:20 10° SSW 19:14:26 29° W 19:17:38 10° NNW visible
28 Feb 10.2 06:30:56 10° NE 06:33:19 16° E 06:35:42 10° SE visible
01 Mar 10.4 19:59:40 10° WSW 20:00:52 11° W 20:02:05 10° WNW visible
02 Mar 9.8 19:34:15 10° SW 19:36:49 19° W 19:39:26 10° NW visible
03 Mar 9.5 06:52:34 10° NE 06:55:43 25° E 06:58:53 10° SSE visible
03 Mar 8.9 19:09:40 10° SSW 19:12:51 30° W 19:16:06 10° NNW visible
